Simultaneous Nadir Overpasses (SNOs) Predictions

Prediction of SNOs between AQUA and GOES-15 Satellite Orbit:

Table of predicted SNOs for the next 14.0 days since TLE Epoch: 8/9/2013
Index Date Time (AQUA) AQUA Lat,Lon GOES-15 Lat,Lon Distance(km) Time Diff (sec)
1 08/10/2013 22:35:24 0.32,-134.99 0.31,-135.18 22.07 80
2 08/12/2013 22:23:13 0.97,-132.04 0.31,-135.13 352.35 80
3 08/13/2013 10:44:28 0.13,-137.19 -0.31,-135.12 235.16 80
4 08/15/2013 10:32:16 -0.47,-134.23 -0.32,-135.06 94.18 80
5 08/15/2013 22:53:41 -0.59,-139.43 0.32,-135.04 498.95 80
6 08/17/2013 10:20:04 -1.09,-131.27 -0.32,-134.99 422.74 80
7 08/17/2013 22:41:29 0.03,-136.47 0.33,-134.97 170.43 80
8 08/19/2013 22:29:16 0.60,-133.50 0.33,-134.90 157.88 80
9 08/20/2013 10:50:32 0.44,-138.67 -0.33,-134.88 429.73 80
10 08/21/2013 22:17:04 1.24,-130.55 0.33,-134.82 486.06 80
11 08/22/2013 10:38:19 -0.14,-135.70 -0.34,-134.81 101.59 80




NCC Satellite Simultaneous Nadir Overpasses (SNOs) Prediction Service
